Simultaneous Nadir Overpasses (SNOs) Predictions

Prediction of SNOs between METOP-A and NOAA-19 Satellite Orbit:

Table of predicted SNOs for the next 14.0 days since TLE Epoch: 4/24/2021
Index Date (METOP-A) Time (METOP-A) Lat,Lon (METOP-A) SZA (METOP-A ) Date (NOAA-19) Time (NOAA-19) Lat,Lon (NOAA-19) SZA (NOAA-19 ) Distance(km) Time Diff (sec)
1 04/30/2021 13:51:15 -80.86, 162.39 113.97 04/30/2021 13:50:11 -80.86, 162.24 113.99 2.74 64
2 04/30/2021 14:41:56 80.85, -30.51 66.00 04/30/2021 14:41:11 80.86, -30.36 66.01 2.92 45
3 04/30/2021 15:32:37 -80.85, 136.91 114.01 04/30/2021 15:32:11 -80.86, 136.88 114.01 0.66 26
4 04/30/2021 16:23:17 80.86, -55.65 66.00 04/30/2021 16:23:11 80.86, -55.71 65.99 1.15 6
5 04/30/2021 17:13:59 -80.84, 111.43 114.04 04/30/2021 17:14:11 -80.86, 111.52 114.02 2.29 12
6 04/30/2021 18:04:39 80.85, -81.14 65.96 04/30/2021 18:05:11 80.86, -81.07 65.98 1.45 32
7 04/30/2021 18:55:20 -80.86, 86.29 114.04 04/30/2021 18:56:11 -80.86, 86.16 114.04 2.23 51



Historial Predications of SNOs between METOP-A and NOAA-19
